Location: Huntsville
(41.2590°N, 111.7678°W)
Time: 13:31:22
(UTC+00:00)

Transit 2A - All Passes

Search period start: 22 June 2021 00:00
Search period end: 02 July 2021 00:00
Orbit: 600 x 958 km, 66.7° (Epoch: 21 June)

Date Brightness Start Highest point End Pass type
(mag) Time Alt. Az. Time Alt. Az. Time Alt. Az.
22 Jun - 00:59:38 10° WNW 01:01:39 13° NW 01:03:42 10° NNW daylight
22 Jun - 06:17:53 10° NNE 06:19:44 12° NE 06:21:38 10° ENE visible
22 Jun - 07:58:42 10° NNW 08:03:43 67° ENE 08:09:15 10° SE visible
22 Jun - 09:43:12 10° WNW 09:46:29 17° WSW 09:49:56 10° SW visible
22 Jun - 22:39:33 10° S 22:43:46 50° ESE 22:48:00 10° NE daylight
23 Jun - 00:24:11 10° W 00:27:12 18° NW 00:30:16 10° N daylight
23 Jun - 07:24:39 10° NNW 07:29:29 46° NE 07:34:47 10° SE visible
23 Jun - 09:08:15 10° NW 09:12:27 25° WSW 09:16:57 10° SSW visible
23 Jun - 22:05:50 10° S 22:09:41 31° ESE 22:13:33 10° NE daylight
23 Jun - 23:49:10 10° WSW 23:52:48 26° NW 23:56:30 10° N daylight
24 Jun - 06:50:41 10° NNW 06:55:12 33° NE 07:00:06 10° ESE visible
24 Jun - 08:33:40 10° NW 08:38:22 37° WSW 08:43:30 10° S visible
24 Jun - 21:32:28 10° SSE 21:35:40 20° ESE 21:38:52 10° ENE daylight
24 Jun - 23:14:26 10° WSW 23:18:29 37° NW 23:22:36 10° NNE daylight
25 Jun - 06:16:49 10° N 06:20:51 24° NE 06:25:11 10° ESE visible
25 Jun - 07:59:16 10° NW 08:04:15 54° WSW 08:09:45 10° S visible
25 Jun - 20:59:47 10° SE 21:01:41 13° ESE 21:03:34 10° E daylight
25 Jun - 22:39:58 10° SW 22:44:13 58° WNW 22:48:34 10° NNE daylight
26 Jun - 05:43:07 10° N 05:46:27 17° NE 05:49:59 10° E visible
26 Jun - 07:25:00 10° NNW 07:30:06 79° WSW 07:35:45 10° SSE visible
26 Jun - 22:05:42 10° SSW 22:10:02 89° ESE 22:14:26 10° NNE daylight
26 Jun - 23:52:05 10° WNW 23:53:52 12° NW 23:55:40 10° NNW daylight
27 Jun - 05:09:42 10° NNE 05:11:58 13° NE 05:14:20 10° ENE visible
27 Jun - 06:50:49 10° NNW 06:55:54 72° ENE 07:01:32 10° SE visible
27 Jun - 08:35:31 10° WNW 08:38:38 16° WSW 08:41:55 10° SW visible
27 Jun - 21:31:39 10° SSW 21:35:53 55° ESE 21:40:10 10° NE daylight
27 Jun - 23:16:31 10° W 23:19:23 17° NW 23:22:19 10° N daylight
28 Jun - 06:16:44 10° NNW 06:21:41 50° NE 06:27:07 10° SE visible
28 Jun - 08:00:30 10° WNW 08:04:37 24° WSW 08:09:02 10° SSW visible
28 Jun - 20:57:52 10° S 21:01:48 34° ESE 21:05:46 10° NE daylight
28 Jun - 22:41:27 10° WSW 22:44:59 24° NW 22:48:36 10° N daylight
29 Jun - 05:42:45 10° NNW 05:47:24 35° NE 05:52:28 10° ESE visible
29 Jun - 07:25:51 10° NW 07:30:33 34° WSW 07:35:39 10° S visible
29 Jun - 20:24:25 10° SSE 20:27:46 22° ESE 20:31:07 10° ENE daylight
29 Jun - 22:06:41 10° WSW 22:10:39 35° NW 22:14:43 10° NNE daylight
30 Jun - 05:08:51 10° N 05:13:04 26° NE 05:17:36 10° ESE visible
30 Jun - 06:51:25 10° NW 06:56:26 50° WSW 07:01:57 10° S visible
30 Jun - 19:51:33 10° SE 19:53:47 14° ESE 19:56:01 10° ENE daylight
30 Jun - 21:32:09 10° SW 21:36:22 53° WNW 21:40:43 10° NNE daylight
01 Jul - 04:35:06 10° N 04:38:41 19° NE 04:42:28 10° E visible
01 Jul - 06:17:07 10° NNW 06:22:17 74° WSW 06:27:59 10° SSE visible
01 Jul - 20:57:50 10° SSW 21:02:10 84° WNW 21:06:36 10° NNE daylight
01 Jul - 22:44:35 10° WNW 22:46:04 11° NW 22:47:36 10° NNW daylight
